Terminal Aerodrome Forecast
Issued by NWS Portland, OR

Home | Current Version | Previous Version | Text Only | Print | Product List | Glossary On
Versions: 1 2 3 4 5 6 7 8 9 10 11 12 13 14 15 16 17 18 19 20 21 22 23 24 25 26 27 28 29 30 31 32 33 34 35 36 37 38 39 40 41
000
FTUS46 KPQR 240905 AAA
TAFSLE
TAF AMD
KSLE 240905Z 2409/2506 VRB03KT P6SM SCT010 OVC040
     FM241100 16004KT 4SM BR BKN007 OVC020
     FM241700 17008KT P6SM SCT007 BKN060=

USA.gov is the U.S. government's official web portal to all federal, state and local government web resources and services.